Wind_Speed
20 20 20 20 20 20 19 19 19 19 21 22 24 26 26 25 25 25 24 24 23 22 21 20 20 20 20 19 19 20 20 20 21 22 22 23 24 25 26 28 29 29
20 20 20 21 21 20 20 21 22 22 22 24 25 27 27 26 26 26 25 24 23 23 22 21 21 21 20 20 20 21 21 21 22 22 23 23 24 26 27 29 31 31
21 21 22 22 21 21 21 22 23 23 24 25 26 27 27 26 26 26 26 25 23 23 22 21 21 21 20 20 21 22 22 22 23 24 24 24 25 26 28 30 32 32
22 22 22 23 23 23 23 23 25 25 26 27 27 27 27 26 26 27 27 26 24 23 23 22 21 22 21 21 21 22 23 23 24 25 25 25 25 27 28 29 30 30
21 22 23 24 24 24 24 25 27 27 27 28 28 27 26 26 27 28 28 27 25 24 23 22 22 23 23 22 23 24 24 24 25 25 25 24 25 27 29 30 30 30
22 23 23 24 25 26 26 27 28 28 29 29 29 28 26 25 27 28 29 29 27 25 24 22 23 24 24 23 23 25 25 25 25 25 24 24 25 28 30 31 31 30
22 22 22 23 25 26 27 28 29 29 29 30 30 29 26 25 27 27 29 30 28 26 24 23 24 24 24 24 24 25 26 26 26 25 24 24 25 28 30 30 29 28
21 20 21 23 24 25 27 29 30 30 30 30 30 30 28 26 27 27 29 31 29 27 25 25 25 25 25 25 25 26 26 26 26 25 24 24 25 28 28 28 27 28
24 23 23 24 25 26 27 29 31 31 32 31 31 32 30 27 27 27 30 31 30 28 27 26 27 26 26 26 26 27 27 27 26 26 25 25 25 26 27 28 28 29
31 29 26 27 28 27 28 32 33 32 32 33 33 33 31 29 28 28 30 31 30 28 28 29 29 27 27 27 28 28 28 28 28 27 26 27 27 28 29 30 31 32
35 34 32 32 33 31 31 34 36 34 33 33 33 33 33 33 32 31 31 30 29 28 30 30 29 27 28 28 29 30 30 30 29 29 29 29 30 31 31 33 34 35
33 33 34 34 35 38 38 38 37 38 39 38 35 33 34 35 35 34 32 30 29 29 30 29 27 27 29 29 29 30 31 31 31 31 31 31 32 33 33 34 36 38
29 30 32 33 34 37 39 39 41 42 42 39 37 37 37 37 35 34 32 31 30 30 29 28 28 29 30 30 30 31 32 32 32 32 32 33 33 34 34 35 38 40
30 34 36 34 33 33 33 36 41 43 42 40 39 40 41 39 37 35 33 32 31 31 29 29 30 31 31 31 31 32 32 32 33 33 34 34 34 33 34 36 38 40
34 38 42 40 37 34 34 36 37 38 39 40 41 42 41 39 39 38 35 33 32 30 30 31 32 33 33 32 31 32 32 33 34 35 34 34 33 33 34 37 40 41
35 39 43 42 39 36 36 38 38 36 35 36 38 40 40 40 41 39 35 33 31 30 31 33 34 35 35 34 32 32 33 34 35 35 35 33 32 33 36 38 40 42
36 38 41 39 36 34 33 34 33 33 34 35 36 37 37 39 40 37 33 32 30 30 32 34 35 36 37 35 33 33 33 34 35 36 35 33 32 35 38 39 41 44
38 39 41 40 39 36 32 30 31 33 35 36 37 36 36 37 37 35 33 33 34 34 34 34 35 37 38 36 35 34 34 35 35 35 34 33 34 37 39 41 44 45
41 41 42 44 44 38 31 29 30 33 35 36 36 35 34 34 35 35 35 35 35 35 34 34 36 38 38 37 36 35 35 35 35 35 34 34 36 39 41 43 45 47
42 43 44 45 43 38 34 33 34 34 35 35 34 33 33 33 33 32 30 28 29 30 32 35 37 38 39 39 37 36 36 37 36 36 35 36 38 40 42 45 48 49
43 44 47 46 42 40 39 39 39 36 33 32 33 33 33 31 28 25 23 24 25 27 31 34 37 38 39 39 38 36 36 37 37 37 37 37 39 41 45 48 49 47
45 46 48 47 44 41 39 37 36 33 31 31 33 33 32 29 26 24 24 24 25 26 29 33 36 37 38 39 38 37 36 36 37 38 38 39 41 44 47 49 48 46
47 48 50 48 43 41 39 35 32 32 32 32 33 33 31 28 27 26 26 25 24 24 25 28 32 35 37 39 39 37 36 37 38 39 40 42 44 47 49 49 48 48
49 50 51 49 44 42 39 34 32 34 34 33 34 33 29 27 28 29 27 26 25 24 25 27 31 34 37 39 39 37 36 37 39 40 41 44 46 49 51 50 49 49
49 50 51 50 45 41 37 35 35 36 34 32 33 32 28 26 27 27 27 27 26 26 27 30 34 36 38 38 37 36 36 37 39 41 42 46 49 51 51 49 48 48
50 50 50 48 43 39 36 35 35 35 34 33 31 29 27 27 27 27 29 29 27 28 31 33 36 38 39 38 35 35 37 38 40 41 45 50 52 52 50 48 48 48
Wind_Direction
285 286 287 289 291 293 292 291 289 291 293 296 298 300 301 303 304 303 300 301 304 305 305 306 305 307 310 312 313 313 313 314 315 314 314 315 316 317 318 318 317 317
287 287 288 291 294 296 295 292 292 292 293 295 297 298 300 302 303 301 300 301 303 305 305 305 304 305 308 311 312 313 313 314 314 313 313 314 316 318 319 318 318 317
289 290 292 295 297 297 297 296 294 294 293 293 294 295 298 300 301 300 299 301 303 306 306 305 304 306 309 311 312 312 313 313 312 312 314 316 319 321 321 321 321 319
292 295 297 298 298 297 297 296 295 294 293 292 292 294 297 299 301 300 301 303 306 308 307 305 304 308 310 311 311 311 312 313 313 314 316 318 320 322 324 326 326 324
295 298 299 299 299 297 295 293 292 293 293 292 292 294 298 301 301 302 304 307 308 309 308 305 305 308 309 309 310 312 313 314 314 314 315 317 320 323 324 324 323 322
297 297 298 299 298 296 293 291 291 292 292 292 293 295 299 301 302 303 305 307 308 308 306 302 303 307 307 307 310 312 313 313 313 313 313 316 320 322 322 321 320 318
295 295 297 296 295 292 289 289 290 290 291 292 294 296 298 300 302 303 304 304 305 306 303 300 302 306 306 307 310 311 311 311 311 312 312 314 319 322 322 322 321 319
291 293 294 290 289 287 285 287 288 289 291 292 292 293 296 299 301 302 301 301 303 304 302 299 301 304 305 305 307 308 308 308 309 310 309 310 316 322 325 326 325 322
286 284 282 280 283 285 283 283 286 289 290 290 288 289 291 295 299 300 298 298 300 301 299 298 299 302 302 302 304 305 305 306 306 307 306 305 310 318 324 326 325 323
282 280 277 277 284 288 284 280 280 284 287 287 285 286 288 291 293 293 291 293 296 296 295 295 296 298 300 301 304 305 304 305 305 306 304 302 304 311 317 322 324 324
287 289 286 283 283 283 282 280 277 277 279 282 283 282 284 286 286 287 287 289 292 292 293 294 292 293 297 300 303 304 304 304 306 306 305 303 302 304 309 316 321 322
304 303 296 292 286 279 278 279 277 276 277 280 281 279 280 284 284 286 288 288 288 289 291 292 289 289 293 295 299 302 303 304 305 305 305 304 302 302 303 308 316 318
318 313 307 304 297 289 284 281 279 281 283 282 280 278 281 284 285 286 288 286 286 287 290 290 287 286 289 292 296 300 302 304 304 304 304 303 302 301 301 305 312 316
320 314 308 303 298 297 298 293 289 289 288 284 282 282 283 282 282 285 285 283 284 286 288 288 286 285 287 292 296 300 303 304 304 304 303 303 302 300 301 306 312 314
318 313 305 297 292 295 302 305 303 299 291 287 287 289 287 283 282 283 283 281 281 283 285 287 286 284 287 292 295 299 302 303 303 302 301 300 299 300 304 309 312 314
316 315 310 302 297 299 303 303 305 305 302 299 297 295 292 289 286 284 282 281 279 281 285 285 284 284 288 291 293 296 300 301 300 300 298 298 298 302 307 310 312 315
312 316 318 314 311 312 307 301 302 308 309 307 304 299 295 293 291 286 282 279 277 282 287 284 281 285 289 291 293 294 297 298 298 297 296 295 298 303 307 310 312 315
310 315 318 317 316 315 308 301 306 312 310 306 304 301 298 296 294 288 283 281 278 283 288 283 282 287 291 291 292 292 293 295 296 295 293 294 299 303 307 309 312 315
311 315 314 314 315 314 308 305 309 313 311 307 306 305 302 298 293 288 287 286 282 282 285 284 285 290 292 291 291 290 291 293 294 293 292 295 301 304 306 309 312 316
310 312 312 313 314 312 309 307 307 310 310 307 308 309 305 299 293 288 288 289 285 284 286 287 290 292 293 292 291 290 290 291 291 290 291 296 301 304 306 309 313 315
309 311 312 312 309 306 306 304 303 306 307 306 307 307 303 299 290 280 282 287 287 287 290 291 293 294 294 293 292 290 289 290 289 287 289 295 301 303 306 310 313 310
310 311 310 307 304 304 305 301 299 303 305 304 303 303 301 295 281 269 274 283 285 288 292 294 295 296 296 295 292 290 288 288 287 286 288 295 299 301 305 309 310 306
310 309 306 304 304 305 304 299 297 302 305 302 300 300 298 289 275 268 271 276 280 287 294 297 299 299 298 295 292 289 288 287 286 287 291 296 300 302 305 308 307 305
307 307 305 304 303 301 300 298 297 301 305 303 298 297 293 283 274 270 267 269 276 285 293 299 301 302 299 296 292 289 288 287 287 289 293 297 301 303 305 307 306 306
306 306 304 302 302 301 300 300 300 301 305 303 298 295 290 280 273 268 263 265 274 286 295 300 302 302 300 297 292 288 286 286 286 291 296 299 302 304 305 305 305 305
304 305 302 299 300 301 301 301 301 301 304 304 297 289 282 275 271 265 260 262 273 288 296 301 303 303 300 296 291 287 285 285 288 293 298 301 303 304 304 303 304 305
Height
5909 5908 5908 5907 5906 5906 5905 5905 5904 5904 5903 5902 5901 5900 5900 5899 5899 5898 5897 5897 5896 5895 5894 5893 5892 5891 5890 5889 5888 5887 5886 5885 5883 5882 5880 5879 5877 5876 5875 5873 5872 5871
5906 5906 5905 5905 5904 5903 5903 5902 5902 5901 5901 5900 5899 5898 5897 5897 5896 5895 5894 5894 5893 5892 5891 5890 5890 5889 5888 5887 5886 5885 5883 5882 5880 5879 5877 5876 5874 5873 5871 5870 5868 5867
5904 5903 5902 5902 5901 5901 5901 5900 5899 5899 5898 5897 5896 5895 5895 5894 5894 5893 5892 5891 5890 5890 5889 5888 5887 5886 5885 5884 5883 5882 5881 5879 5878 5876 5874 5873 5871 5869 5868 5866 5864 5862
5901 5900 5900 5899 5899 5898 5898 5897 5896 5896 5895 5894 5893 5893 5892 5892 5891 5890 5889 5888 5888 5887 5886 5885 5884 5883 5881 5881 5880 5879 5878 5876 5874 5873 5871 5870 5868 5866 5864 5862 5860 5859
5898 5898 5897 5896 5896 5895 5895 5894 5893 5892 5892 5891 5891 5891 5890 5889 5888 5887 5886 5885 5885 5884 5883 5881 5880 5879 5878 5877 5876 5875 5874 5873 5871 5870 5868 5867 5865 5863 5861 5858 5857 5855
5895 5895 5894 5893 5893 5892 5891 5890 5889 5889 5888 5888 5888 5888 5888 5887 5885 5884 5883 5881 5881 5881 5879 5878 5877 5876 5875 5874 5873 5872 5871 5870 5868 5867 5865 5864 5862 5860 5858 5855 5853 5852
5892 5891 5891 5890 5889 5888 5888 5887 5886 5885 5885 5885 5884 5884 5884 5883 5882 5881 5879 5878 5878 5877 5876 5875 5874 5873 5872 5871 5870 5869 5868 5867 5865 5864 5862 5860 5859 5857 5855 5852 5850 5848
5888 5888 5887 5886 5885 5884 5884 5883 5883 5882 5882 5881 5880 5880 5880 5879 5878 5877 5876 5875 5874 5874 5872 5871 5871 5870 5869 5868 5867 5866 5865 5864 5862 5860 5859 5857 5855 5854 5852 5849 5847 5845
5884 5883 5883 5882 5882 5881 5881 5880 5879 5879 5878 5878 5877 5876 5876 5875 5874 5873 5872 5871 5871 5870 5869 5868 5867 5866 5865 5865 5864 5863 5862 5860 5859 5857 5855 5853 5852 5850 5848 5846 5844 5842
5877 5878 5880 5881 5881 5880 5878 5877 5876 5876 5875 5874 5873 5872 5872 5872 5871 5869 5868 5868 5868 5867 5866 5865 5864 5863 5862 5861 5860 5859 5858 5856 5854 5853 5851 5849 5848 5846 5844 5843 5840 5838
5874 5878 5880 5881 5880 5877 5874 5872 5871 5871 5871 5869 5869 5868 5868 5868 5867 5865 5865 5864 5864 5863 5862 5861 5860 5859 5858 5857 5856 5855 5853 5852 5850 5848 5847 5845 5843 5842 5840 5838 5836 5834
5875 5877 5876 5876 5874 5870 5868 5867 5866 5866 5865 5865 5865 5865 5864 5864 5862 5861 5861 5861 5860 5859 5858 5857 5857 5856 5854 5853 5852 5850 5849 5848 5846 5845 5843 5841 5839 5837 5836 5834 5832 5830
5874 5872 5870 5869 5866 5863 5863 5864 5863 5862 5862 5861 5861 5860 5860 5859 5858 5857 5857 5856 5855 5855 5854 5853 5852 5851 5850 5848 5847 5846 5845 5844 5842 5841 5839 5837 5835 5833 5832 5830 5828 5826
5870 5867 5864 5863 5861 5860 5861 5861 5860 5859 5858 5857 5856 5856 5855 5855 5854 5853 5852 5851 5851 5850 5849 5849 5848 5846 5845 5844 5843 5841 5840 5839 5838 5836 5835 5833 5831 5829 5827 5826 5824 5821
5866 5862 5856 5856 5858 5859 5859 5858 5857 5855 5854 5853 5852 5851 5850 5849 5849 5848 5847 5846 5846 5845 5845 5844 5843 5842 5841 5840 5838 5837 5836 5834 5833 5832 5830 5828 5827 5825 5823 5821 5818 5816
5863 5858 5853 5853 5856 5857 5855 5854 5853 5852 5850 5849 5848 5847 5845 5844 5844 5843 5842 5841 5841 5841 5840 5839 5838 5837 5836 5835 5834 5833 5831 5830 5829 5827 5826 5824 5822 5820 5818 5816 5813 5810
5858 5855 5853 5853 5854 5854 5852 5851 5850 5848 5846 5844 5843 5842 5840 5840 5839 5838 5838 5837 5837 5837 5836 5835 5834 5833 5832 5831 5829 5828 5827 5826 5825 5823 5821 5819 5817 5815 5813 5810 5807 5805
5854 5853 5851 5849 5849 5849 5849 5848 5846 5845 5842 5840 5839 5837 5835 5835 5834 5833 5833 5833 5833 5832 5832 5831 5830 5829 5827 5825 5824 5823 5822 5821 5821 5819 5816 5814 5812 5810 5807 5804 5802 5800
5851 5849 5846 5844 5844 5844 5844 5843 5842 5840 5838 5836 5834 5832 5831 5830 5829 5829 5829 5828 5828 5828 5827 5826 5825 5824 5822 5820 5819 5818 5817 5816 5816 5814 5811 5809 5806 5804 5802 5799 5796 5794
5847 5845 5842 5841 5840 5839 5839 5838 5837 5835 5833 5831 5829 5827 5826 5825 5824 5824 5824 5823 5823 5822 5822 5822 5821 5819 5817 5816 5815 5813 5812 5811 5810 5808 5806 5804 5801 5799 5796 5793 5791 5789
5843 5840 5838 5836 5836 5835 5835 5834 5832 5831 5829 5826 5825 5823 5821 5820 5819 5819 5820 5819 5818 5818 5817 5817 5816 5815 5813 5811 5810 5808 5806 5806 5804 5802 5801 5799 5797 5794 5791 5789 5787 5784
5838 5836 5832 5831 5831 5830 5830 5829 5827 5826 5824 5822 5820 5818 5816 5815 5815 5815 5815 5815 5814 5814 5813 5812 5811 5810 5808 5806 5804 5803 5801 5800 5799 5797 5796 5794 5791 5788 5786 5784 5781 5777
5832 5830 5827 5826 5826 5825 5824 5823 5821 5821 5820 5818 5816 5813 5811 5810 5810 5810 5811 5811 5810 5810 5809 5808 5806 5805 5803 5801 5799 5797 5795 5794 5793 5792 5790 5788 5785 5782 5781 5779 5775 5771
5827 5824 5821 5821 5821 5819 5817 5817 5816 5815 5814 5812 5810 5808 5806 5805 5805 5806 5806 5806 5806 5805 5804 5803 5801 5799 5797 5795 5793 5791 5790 5789 5788 5787 5785 5782 5779 5777 5774 5772 5769 5765
5821 5818 5815 5814 5814 5813 5812 5812 5810 5809 5808 5806 5803 5801 5800 5800 5800 5801 5801 5801 5800 5799 5798 5797 5795 5793 5791 5789 5787 5786 5784 5784 5783 5781 5779 5776 5774 5771 5768 5765 5763 5760
5815 5813 5809 5807 5808 5808 5807 5805 5804 5803 5802 5800 5797 5796 5795 5795 5795 5796 5796 5795 5794 5793 5792 5791 5790 5788 5786 5784 5782 5781 5780 5779 5778 5776 5773 5770 5768 5765 5762 5759 5757 5755